Regional Weather Roundup
Issued by NWS

Home | Current Version | Previous Version | Graphics & Text | Print | Product List | Glossary On
Versions: 1 2 3 4 5 6 7 8 9 10 11 12 13 14 15 16 17 18 19 20 21 22 23 24 25 26 27 28 29 30 31 32 33 34 35 36 37 38 39 40 41 42 43 44 45 46 47 48 49 50
000
ASUS45 KTFX 302204
RWRMT
MONTANA REGIONAL WEATHER ROUNDUP
NATIONAL WEATHER SERVICE GREAT FALLS MT
400 PM MDT SUN AUG 30 2015

NOTE: "FAIR" INDICATES FEW OR NO CLOUDS BELOW 12000 FEET WITH NO
SIGNIFICANT WEATHER AND/OR OBSTRUCTIONS TO VISIBILITY.

MTZ001>007-043-302300-
WEST OF THE DIVIDE

CITY           SKY/WX    TMP DP  RH WIND       PRES   REMARKS
KALISPELL      CLOUDY    61  43  51 W20G31    29.89R
MISSOULA       LGT RAIN  62  45  53 W21G43    29.92R
BUTTE          MOSUNNY   76  30  18 SW12G25   29.88F
MULLAN PASS    RAIN      41  40  96 SW13G25   30.00F FOG
DEER LODGE       N/A     73  37  27 N10G17    29.86F
EUREKA           N/A     59  45  58 SE13G20   29.88S
HAMILTON         N/A     72  34  25 W29       29.84S
LIBBY            N/A     57  46  67 SE9       29.91F
$$

MTZ008-052>055-302300-
SOUTHWEST MONTANA

CITY           SKY/WX    TMP DP  RH WIND       PRES   REMARKS
BOZEMAN        PTSUNNY   73  50  44 N10       29.79F
DILLON         PTSUNNY   80  24  12 W23G37    29.83F
W YELLOWSTONE  MOSUNNY   70  37  30 SW22G37   30.04F
$$

MTZ009-010-012-014-046-048-049-054-302300-
EAST SLOPES AND CENTRAL MONTANA

CITY           SKY/WX    TMP DP  RH WIND       PRES   REMARKS
CUT BANK       PTSUNNY   72  33  24 SW36G45   29.77R
GREAT FALLS    MOSUNNY   81  37  20 W18G25    29.74F
HELENA         PTSUNNY   78  42  27 NW7       29.75F
$$

MTZ011-013-016-021-045-047-050-051-302300-
NORTH CENTRAL MONTANA

CITY           SKY/WX    TMP DP  RH WIND       PRES   REMARKS
HAVRE          SUNNY     81  47  30 SW10G20   29.70F
LEWISTOWN      MOSUNNY   83  40  21 W15       29.77F
N BAR RANCH    DRIZZLE   64  54  68 SW17      29.84F
CHINOOK          N/A     81  48  32 W9        29.71F
FORT BENTON      N/A     82  37  20 SW16G25   29.72F
$$

MTZ017>020-022>027-061-062-302300-
NORTHEAST MONTANA

CITY           SKY/WX    TMP DP  RH WIND       PRES   REMARKS
GLASGOW        SUNNY     84  49  29 SW12      29.72S
JORDAN           N/A     88  47  24 W14G21    29.74F
SIDNEY         PTSUNNY   82  43  24 N14       29.72F
WOLF POINT     MOSUNNY   87  52  29 S5        29.71S
PLENTYWOOD       N/A     81  48  32 NE6       29.71F
POPLAR           N/A     84  50  30 CALM      29.72S
$$

MTZ028>42-056>058-302300-
SOUTHCENTRAL AND SOUTHEAST MONTANA

CITY           SKY/WX    TMP DP  RH WIND       PRES   REMARKS
BAKER          MOSUNNY   85  49  28 N12G23    29.79F
BILLINGS       PTSUNNY   81  48  31 E14       29.81F
LIVINGSTON     SUNNY     86  34  15 SW35G44   29.78F
MILES CITY     PTSUNNY   85  50  29 E9        29.77F
FORSYTH          N/A     82  48  30 E12       29.77F
$$

REGIONAL REPORTS...DAKOTAS

CITY           SKY/WX    TMP DP  RH WIND       PRES   REMARKS
WILLISTON      MOSUNNY   85  44  23 N17       29.72R
MINOT          CLOUDY    88  55  32 W8        29.62F
BISMARCK       MOSUNNY   97  58  27 S10       29.65F HX  96
GRAND FORKS    PTSUNNY   86  68  54 S22G29    29.67S
FARGO          MOSUNNY   87  67  51 S17G29    29.73F HX  90
BUFFALO SD       N/A     94  50  22 NW12G18   29.70F HX  91
RAPID CITY     MOSUNNY   97  52  21 S15       29.73F HX  94
$$

REGIONAL REPORTS...WYOMING/IDAHO/WASHINGTON

CITY           SKY/WX    TMP DP  RH WIND       PRES   REMARKS
GILLETTE       PTSUNNY   90  44  20 N12       29.83S
SHERIDAN       PTSUNNY   84  48  28 CALM      29.85F
BUFFALO WY     PTSUNNY   79  48  33 N10       29.92F
CODY           PTSUNNY   82  45  26 CALM      29.87F
YELLOWSTONE LA   N/A     66  39  37 MISG      30.16F
IDAHO FALLS    MOSUNNY   80  38  22 SW20G33   29.98F
SALMON         MOSUNNY   79  27  14 W10G30    29.79F
BOISE          CLOUDY    78  40  25 NW10      29.96F
SPOKANE        PTSUNNY   62  48  60 SW22      29.91S
$$

REGIONAL REPORTS...ALBERTA

CITY           SKY/WX    TMP DP  RH WIND       PRES   REMARKS
$$

REGIONAL REPORTS...SASKATCHEWAN

CITY           SKY/WX    TMP DP  RH WIND       PRES   REMARKS
$$


USA.gov is the U.S. government's official web portal to all federal, state and local government web resources and services.